[[{"header":{"parameterUnit":"m.s-1","parameterCategory":1,"la1":30.2992,"la2":30.254,"lo1":-89.0895,"lo2":-89.0443,"dy":0.0025,"dx":0.0025,"nx":19,"ny":19,"refTime":"2026-03-14T21:00:00:Z","depth":0,"parameterNumber":2,"parameterNumberName":"U-component_of_WINDS"},"data":[0,0,0,-3.7975,-3.7979,-3.8178,-3.8178,-3.8441,-3.8444,0,0,0,0,0,0,0,0,0,0,0,-3.792,-3.7922,-3.7975,-3.798,-3.8178,-3.8178,-3.8441,-3.8444,0,0,0,0,0,0,0,0,0,0,0,-3.7919,-3.7921,-3.7924,-3.7981,-3.8177,-3.8178,-3.844,-3.8288,0,0,0,0,0,0,0,0,0,0,-3.8094,-3.8046,-3.7921,-3.7924,-3.7982,-3.8177,-3.8179,-3.828,-3.8297,-3.8355,0,-3.8405,0,-3.8429,-3.8462,-3.8463,0,0,0,-3.7978,-3.8032,-3.8082,-3.7924,-3.7984,-3.8177,-3.8088,-3.829,-3.8309,-3.8378,-3.8409,-3.8418,-3.8433,-3.8463,-3.8465,-3.8801,-3.8802,0,0,-3.7967,-3.7958,-3.8069,-3.8095,-3.8062,-3.8081,-3.8094,-3.8301,-3.8336,-3.841,-3.8424,-3.8437,-3.8465,-3.8467,-3.8799,-3.8801,0,0,0,-3.7937,-3.795,-3.7995,-3.8084,-3.8119,-3.8087,-3.8102,-3.8326,-3.8342,-3.8427,-3.844,-3.8467,-3.847,-3.8797,-3.88,-3.8873,0,0,0,-3.793,-3.7933,-3.7991,-3.7987,-3.8115,-3.8225,-3.8122,-3.8327,-3.8351,-3.8439,-3.8467,-3.8473,-3.8795,-3.8799,-3.8867,-3.8909,0,0,0,-3.7906,-3.793,-3.796,-3.7986,-3.8071,-3.8221,-3.8249,-3.8332,-3.8359,-3.8463,-3.8473,-3.8794,-3.8798,-3.8861,-3.89,-3.8994,0,0,0,-3.7878,-3.8022,-3.7961,-3.8127,-3.8069,-3.8265,-3.8247,-3.8394,-3.8492,-3.8468,-3.8796,-3.8799,-3.886,-3.8894,-3.8988,-3.9071,-3.9105,0,0,-3.8055,-3.8043,-3.8142,-3.8093,-3.8297,-3.8235,-3.8452,-3.855,-3.8569,-3.8723,-3.8731,-3.8869,-3.8899,-3.8993,-3.9299,-3.9326,0,0,0,-3.8195,-3.8266,-3.8322,-3.8414,-3.8492,-3.8564,-3.863,-3.8667,-3.8798,-3.8646,-3.8929,-3.8948,-3.9003,-3.9043,-3.9066,-3.9114,-3.8818,-3.8817,-3.8817,-3.8432,-3.8448,-3.8613,-3.8654,-3.8744,-3.8812,-3.8887,-3.8949,-3.8939,-3.9006,-3.9051,-3.9235,-3.9281,-3.9298,-3.9349,-3.9097,-3.9098,-3.9098,-3.9098,-3.8692,-3.8794,-3.878,-3.8934,-3.8951,-3.9082,-3.9155,-3.9144,-3.927,-3.9202,-3.9251,-3.9174,-3.9327,-3.9372,-3.9104,-3.9103,-3.9102,-3.9102,-3.9101,-3.8847,-3.8899,-3.8942,-3.9078,-3.9182,-3.922,-3.9341,-3.9354,-3.9366,-3.9416,-3.9465,-3.9464,-3.9464,-3.9439,-3.9439,-3.944,-3.9441,-3.9441,-3.9441,-3.8991,-3.9037,-3.9136,-3.9234,-3.9295,-3.9379,-3.9451,-3.9513,-3.9585,-3.9585,-3.9586,-3.957,-3.9339,-3.928,-3.9451,-3.945,-3.9448,-3.9447,-3.9447,-3.9246,-3.9191,-3.9345,-3.9407,-3.9524,-3.9627,-3.9642,-3.9768,-3.9822,-3.9882,-3.9857,-3.9685,-3.9673,-3.9655,-3.9607,-3.9852,-3.9852,-3.9852,-3.9852,-3.9377,-3.9373,-3.9534,-3.9633,-3.9731,-3.9761,-3.9938,-3.9997,-4.005,-4.0085,-4.0052,-3.9989,-3.997,-3.997,-3.9946,-3.99,-4.0215,-4.0215,-4.0216,-3.9535,-3.9541,-3.9687,-3.9737,-3.983,-3.991,-4.0077,-4.0194,-4.0242,-4.0231,-4.0113,-4.0097,-3.9996,-3.9962,-3.9945,-3.9906,-3.9823,0,0]},{"header":{"parameterUnit":"m.s-1","parameterCategory":1,"la1":30.2992,"la2":30.254,"lo1":-89.0895,"lo2":-89.0443,"dy":0.0025,"dx":0.0025,"nx":19,"ny":19,"refTime":"2026-03-14T21:00:00:Z","depth":0,"parameterNumber":3,"parameterNumberName":"V-component_of_WINDS"},"data":[0,0,0,3.4551,3.4554,3.4659,3.4659,3.4793,3.4794,0,0,0,0,0,0,0,0,0,0,0,3.4522,3.4523,3.4551,3.4554,3.4659,3.4659,3.4793,3.4794,0,0,0,0,0,0,0,0,0,0,0,3.4522,3.4523,3.4524,3.4554,3.4659,3.4659,3.4792,3.4713,0,0,0,0,0,0,0,0,0,0,3.4611,3.4586,3.4523,3.4524,3.4555,3.4659,3.4659,3.4709,3.4718,3.4746,0,3.4774,0,3.4786,3.4803,3.4804,0,0,0,3.4552,3.4579,3.4606,3.4524,3.4556,3.4659,3.4611,3.4714,3.4724,3.4758,3.4775,3.478,3.4789,3.4804,3.4805,3.4982,3.4983,0,0,3.4546,3.4541,3.4599,3.4612,3.4599,3.4608,3.4614,3.472,3.4738,3.4776,3.4783,3.4791,3.4805,3.4806,3.4981,3.4982,0,0,0,3.4531,3.4537,3.4562,3.4607,3.4626,3.4611,3.4618,3.4733,3.4742,3.4785,3.4792,3.4806,3.4808,3.498,3.4982,3.5025,0,0,0,3.4527,3.4528,3.4559,3.4557,3.4624,3.4681,3.4629,3.4734,3.4746,3.4792,3.4806,3.4809,3.4979,3.4981,3.5021,3.5045,0,0,0,3.4515,3.4527,3.4543,3.4557,3.4603,3.468,3.4694,3.4737,3.4751,3.4804,3.4809,3.4979,3.4981,3.5018,3.504,3.5091,0,0,0,3.4499,3.4577,3.4544,3.4635,3.4602,3.4707,3.4694,3.4772,3.4822,3.4807,3.4979,3.4982,3.5017,3.5037,3.5087,3.5132,3.5151,0,0,3.4595,3.4589,3.4643,3.4616,3.4727,3.4691,3.4807,3.4856,3.4863,3.4942,3.4946,3.5022,3.5039,3.509,3.5258,3.5273,0,0,0,3.4672,3.471,3.4741,3.4791,3.4832,3.487,3.4902,3.4921,3.4988,3.4904,3.5055,3.5065,3.5095,3.5116,3.5129,3.5155,3.4992,3.4991,3.4991,3.4799,3.4808,3.4898,3.4921,3.4969,3.5004,3.5043,3.5074,3.5066,3.5102,3.5124,3.5226,3.5251,3.526,3.5287,3.5149,3.515,3.515,3.515,3.494,3.4996,3.4989,3.5073,3.5082,3.5152,3.5189,3.5182,3.5247,3.5209,3.5235,3.5191,3.5276,3.53,3.5153,3.5153,3.5152,3.5152,3.5152,3.5024,3.5052,3.5077,3.5152,3.5208,3.5227,3.5292,3.5297,3.5302,3.5328,3.5353,3.5352,3.5351,3.534,3.5341,3.5341,3.5341,3.5342,3.5342,3.51,3.5126,3.5182,3.5236,3.527,3.5315,3.5353,3.5385,3.5423,3.5421,3.5421,3.541,3.5284,3.5251,3.5347,3.5346,3.5346,3.5345,3.5345,3.5238,3.5209,3.5294,3.5329,3.5393,3.545,3.5457,3.5524,3.5552,3.5583,3.5568,3.5474,3.5467,3.5457,3.543,3.5566,3.5566,3.5566,3.5566,3.5307,3.5306,3.5396,3.5451,3.5506,3.5522,3.5617,3.5648,3.5674,3.5692,3.5674,3.5639,3.5629,3.5627,3.5614,3.5589,3.5762,3.5762,3.5763,3.5393,3.5397,3.5478,3.5507,3.5559,3.5603,3.5693,3.5755,3.5778,3.5771,3.5706,3.5698,3.5642,3.5624,3.5611,3.559,3.5544,0,0]}]]